Tracking 19572 objects as of 23-Feb-2019
HD Live streaming from Space Station
objects crossing your sky now

MOLNIYA 3-27

Track MOLNIYA 3-27 now!
MOLNIYA 3-27 is classified as:


NORAD ID: 16393
Int'l Code: 1985-117A
Perigee: 2,694.2 km
Apogee: 35,692.4 km
Inclination: 64.7 °
Period: 678.0 minutes
Semi major axis: 25564 km
RCS: 15.138 m2 (large)
Launch date: December 24, 1985
Source: Commonwealth of Independent States (former USSR) (CIS)
Launch site: PLESETSK MISSILE AND SPACE COMPLEX (PKMTR)
aabbcc
Your satellite tracking list
Your tracking list is empty




NASA's NSSDC Master Catalog

Two Line Element Set (TLE):
1 16393U 85117A   19052.82513679 +.00000106 +00000-0 -29636+0 0  9995
2 16393 064.6887 212.8544 6453954 264.4449 016.1222 02.12398778248430
Source of the keplerian elements: AFSPC